Zurück zum Katalog

STARLINK-38304

AktivKommunikationSSO
NORAD 100374·PAYLOAD·🇺🇸 United States

Gestartet Aug 19, 2026 von Vandenberg Space Force Base

Loading…

Nächste Überflüge (nächste 24 Stunden)

TLE

AktuellSource: Space-Track

Epoche: Sep 14, 2026, 03:18 UTC

1 A0374U 26190D   26257.13750629  .00174389  00000-0  11471-2 0  9995
2 A0374  97.2832 111.1741 0002698  69.3466 290.8088 15.75172615  5372

Verfolge STARLINK-38304 in Echtzeit mit AllMySat

Download on the App Store